DW6178 Weather Reports


Display with metric or nautical units.
time (UTC)temp
F
wind
direction
speed
MPH
gust
MPH
rain 1hr
in
rain 24hr
in
rain mn
in
humidity
%
barometer
mb
20260905083002 56 139 0.0 1.0 0.00 0.00 0.00 38 1011.8
20260905081603 57 213 0.0 2.0 0.00 0.00 0.00 38 1012.0
20260905080057 57 167 0.0 4.0 0.00 0.00 0.00 37 1012.0
20260905074602 57 188 0.0 5.0 0.00 0.00 0.00 36 1012.0
20260905073027 57 197 0.0 4.0 0.00 0.00 0.00 36 1012.2
20260905071526 57 212 0.0 5.0 0.00 0.00 0.00 35 1012.0
20260905070002 57 179 1.0 2.0 0.00 0.00 0.00 36 1012.0
20260905064557 57 226 0.0 3.0 0.00 0.00 0.00 35 1011.9
20260905063034 58 201 1.0 4.0 0.00 0.00 0.00 35 1011.8
20260905061530 58 173 1.0 4.0 0.00 0.00 0.00 34 1011.7
20260905060008 58 192 1.0 4.0 0.00 0.00 0.00 35 1011.7
20260905054504 58 217 1.0 4.0 0.00 0.00 0.00 33 1011.7
20260905053048 58 180 2.0 4.0 0.00 0.00 0.00 33 1011.7
20260905051545 58 211 0.0 3.0 0.00 0.00 0.00 35 1011.7
20260905050038 58 172 1.0 5.0 0.00 0.00 0.00 34 1011.7
20260905044539 58 201 0.0 4.0 0.00 0.00 0.00 33 1011.5
20260905043029 58 208 0.0 4.0 0.00 0.00 0.00 35 1011.4
20260905041525 58 205 0.0 3.0 0.00 0.00 0.00 37 1011.4
20260905040020 59 201 1.0 4.0 0.00 0.00 0.00 36 1011.3
20260905034517 59 191 1.0 3.0 0.00 0.00 0.00 36 1011.2
20260905033102 59 214 1.0 3.0 0.00 0.00 0.00 36 1011.0
20260905031601 59 194 1.0 4.0 0.00 0.00 0.00 37 1010.8
20260905030035 59 203 0.0 3.0 0.00 0.00 0.00 38 1010.8
20260905024538 60 192 0.0 2.0 0.00 0.00 0.00 35 1010.7
20260905023030 60 228 0.0 3.0 0.00 0.00 0.00 33 1010.6
20260905021521 60 208 1.0 2.0 0.00 0.00 0.00 35 1010.6
20260905020016 60 197 0.0 1.0 0.00 0.00 0.00 39 1010.4
20260905014512 61 198 0.0 2.0 0.00 0.00 0.00 47 1010.5
20260905013010 61 199 1.0 3.0 0.00 0.00 0.00 42 1010.3
20260905011512 62 176 0.0 2.0 0.00 0.00 0.00 51 1010.3
20260905010052 63 194 1.0 3.0 0.00 0.00 0.00 57 1010.3
20260905004540 64 192 1.0 4.0 0.00 0.00 0.00 55 1010.3
20260905003027 64 192 1.0 5.0 0.00 0.00 0.00 56 1010.4
20260905001512 64 236 1.0 4.0 0.00 0.00 0.00 58 1010.4
20260905000109 64 148 3.0 7.0 0.00 0.00 0.00 61 1010.6
20260904234546 64 174 2.0 7.0 0.00 0.00 0.00 61 1010.5
20260904233043 65 200 2.0 7.0 0.00 0.00 0.00 60 1010.6
20260904231522 65 207 2.0 7.0 0.00 0.00 0.00 59 1010.6
20260904230041 66 203 2.0 8.0 0.00 0.00 0.00 56 1010.8
20260904224554 66 187 3.0 7.0 0.00 0.00 0.00 53 1010.8
20260904223058 66 179 2.0 9.0 0.00 0.00 0.00 51 1011.0
20260904221528 67 186 3.0 7.0 0.00 0.00 0.00 45 1011.1
20260904220023 68 146 3.0 7.0 0.00 0.00 0.00 42 1011.2
20260904214502 69 195 3.0 8.0 0.00 0.00 0.00 42 1011.3
20260904213058 69 190 3.0 9.0 0.00 0.00 0.00 40 1011.5
20260904211542 70 139 1.0 8.0 0.00 0.00 0.00 39 1011.3
20260904210032 70 179 4.0 6.0 0.00 0.00 0.00 39 1011.4
20260904204509 70 238 3.0 7.0 0.00 0.00 0.00 39 1011.5
20260904203005 70 255 3.0 8.0 0.00 0.00 0.00 37 1011.5
20260904201551 69 211 1.0 8.0 0.00 0.00 0.00 38 1011.4
20260904200052 69 217 2.0 5.0 0.00 0.00 0.00 37 1011.5
20260904194518 69 222 2.0 6.0 0.00 0.00 0.00 37 1011.5
20260904193019 69 145 2.0 7.0 0.00 0.00 0.00 39 1011.7
20260904191552 68 167 2.0 5.0 0.00 0.00 0.00 37 1011.9
20260904190048 68 179 3.0 6.0 0.00 0.00 0.00 37 1012.0
20260904184538 68 162 2.0 4.0 0.00 0.00 0.00 35 1012.1
20260904183021 67 208 1.0 4.0 0.00 0.00 0.00 35 1012.2
20260904181601 66 167 1.0 4.0 0.00 0.00 0.00 36 1012.1
20260904180054 65 174 1.0 4.0 0.00 0.00 0.00 38 1012.0
20260904174607 65 165 2.0 4.0 0.00 0.00 0.00 35 1012.0
20260904173030 64 176 2.0 5.0 0.00 0.00 0.00 33 1012.0
20260904171505 64 177 1.0 3.0 0.00 0.00 0.00 29 1011.9
20260904170001 63 197 1.0 4.0 0.00 0.00 0.00 28 1011.8
20260904164539 64 207 1.0 4.0 0.00 0.00 0.00 30 1011.6
20260904163048 63 284 0.0 2.0 0.00 0.00 0.00 33 1011.4
20260904161518 63 167 0.0 4.0 0.00 0.00 0.00 34 1011.3
20260904160008 62 200 0.0 3.0 0.00 0.00 0.00 37 1011.0
20260904154548 61 256 1.0 3.0 0.00 0.00 0.00 38 1010.9
20260904153045 60 297 0.0 1.0 0.00 0.00 0.00 40 1010.8
20260904151521 59 289 0.0 2.0 0.00 0.00 0.00 39 1010.7
20260904150017 58 290 1.0 3.0 0.00 0.00 0.00 38 1010.8
20260904144556 58 285 0.0 3.0 0.00 0.00 0.00 37 1010.6
20260904143051 57 249 1.0 3.0 0.00 0.00 0.00 31 1010.5
20260904141529 57 285 1.0 2.0 0.00 0.00 0.00 34 1010.5
20260904140024 57 288 1.0 2.0 0.00 0.00 0.00 34 1010.4
20260904134502 56 283 1.0 2.0 0.00 0.00 0.00 20 1010.4
20260904133104 56 290 0.0 2.0 0.00 0.00 0.00 10 1010.2
20260904131536 56 252 1.0 2.0 0.00 0.00 0.00 9 1010.0
20260904130035 56 251 0.0 2.0 0.00 0.00 0.00 8 1009.9
20260904124511 56 253 1.0 2.0 0.00 0.00 0.00 8 1009.7
20260904123006 55 259 1.0 2.0 0.00 0.00 0.00 9 1009.7
20260904121544 55 264 1.0 2.0 0.00 0.00 0.00 10 1009.5
20260904120044 55 273 0.0 2.0 0.00 0.00 0.00 10 1009.6
20260904114522 55 258 0.0 1.0 0.00 0.00 0.00 11 1009.7
20260904113024 54 245 0.0 1.0 0.00 0.00 0.00 13 1009.6
20260904111519 55 228 1.0 7.0 0.00 0.00 0.00 13 1009.5
20260904110017 54 190 0.0 3.0 0.00 0.00 0.00 13 1009.4
20260904104521 55 226 1.0 3.0 0.00 0.00 0.00 17 1009.1
20260904103012 54 226 0.0 1.0 0.00 0.00 0.00 23 1008.9
20260904101512 54 226 0.0 2.0 0.00 0.00 0.00 37 1008.9
20260904100007 54 231 0.0 4.0 0.00 0.00 0.00 46 1008.8
20260904094548 54 232 0.0 2.0 0.00 0.00 0.00 49 1008.8
20260904093057 55 231 1.0 4.0 0.00 0.00 0.00 50 1008.8
20260904091527 55 198 1.0 6.0 0.00 0.00 0.00 49 1008.9
20260904090025 55 205 2.0 5.0 0.00 0.00 0.00 49 1008.9
20260904084506 55 203 1.0 4.0 0.00 0.00 0.00 48 1009.0